Theta_e
313 314 316 315 314 314 315 316 316 315 315 316 316 316 314 312 313 313 313 314 314 315 316 316 316 315 314 313 312 313 314 314 314 314 314 314 314 314 314 314 314 314 314 314 314 314 314 314 315 315 316 317 318 319 320 321 321 322 322 323 323 323 323 323 323 323 324 324 323 323 322 321 321 320 320 320 320 320 321 321 321 322 322 323 324 325
312 313 314 314 313 312 313 315 316 315 314 315 315 315 314 313 313 312 312 312 312 313 314 314 314 314 314 313 312 312 312 313 313 313 313 313 313 313 313 313 313 313 313 313 313 313 314 314 314 314 315 315 316 317 318 319 319 320 321 321 321 322 322 322 323 323 323 323 323 322 321 320 319 319 319 320 320 320 320 321 321 321 322 323 324 324
309 310 312 313 312 312 312 314 315 315 315 315 315 315 315 314 313 312 311 311 311 312 312 312 312 313 313 312 311 311 311 311 312 312 312 312 312 312 312 312 312 312 312 312 312 312 312 313 314 314 314 314 315 316 316 317 318 318 319 319 319 320 320 321 321 322 322 321 321 320 319 318 318 318 319 319 320 320 321 321 321 321 322 323 323 324
308 308 309 311 311 312 312 312 314 315 315 315 314 314 314 313 312 312 312 311 311 311 311 311 311 311 311 312 311 310 309 310 311 311 311 311 311 311 311 311 311 311 311 311 311 311 312 312 313 313 314 314 314 314 315 315 316 316 317 317 317 317 318 318 319 319 319 319 318 318 317 317 317 318 318 319 320 320 320 320 321 321 322 323 323 324
306 307 307 308 309 310 312 313 313 314 314 313 313 312 311 311 311 311 311 310 310 310 310 310 310 310 310 310 310 310 309 309 309 309 310 310 310 310 310 310 310 310 310 310 311 311 311 311 312 312 313 314 314 314 314 314 314 315 315 315 315 316 316 316 316 317 317 317 316 316 316 316 316 317 318 318 319 320 320 320 321 321 322 322 323 324
305 306 307 307 308 308 310 311 313 313 313 311 310 310 309 309 310 310 309 309 309 309 309 308 308 309 309 310 309 309 308 308 308 309 309 309 309 309 309 309 310 310 310 310 310 310 311 311 311 312 312 313 313 314 314 314 314 314 314 314 314 315 315 315 315 315 315 315 315 315 315 315 315 316 316 317 318 319 319 320 320 321 321 321 322 323
304 305 307 307 308 308 309 310 311 312 311 310 309 309 308 308 308 308 308 308 308 308 308 307 307 307 308 308 308 308 308 307 307 307 307 308 308 308 309 309 309 309 309 309 310 310 310 311 311 311 311 312 313 313 314 314 313 313 313 313 314 314 314 314 314 314 314 314 315 315 314 314 315 315 315 316 316 318 319 320 320 321 321 322 322 323
303 305 306 306 306 307 308 309 310 311 310 309 308 308 308 307 307 307 307 308 308 308 307 307 307 307 308 308 308 308 308 308 308 308 307 307 308 308 308 308 308 309 309 309 309 310 310 310 310 311 311 311 312 313 313 313 313 312 312 312 312 313 313 313 313 314 314 314 314 314 314 314 314 314 314 314 315 316 317 319 320 321 321 322 322 322
302 303 304 305 306 306 305 307 309 310 310 309 308 307 306 306 307 307 308 307 307 308 307 307 306 307 308 309 309 309 309 309 309 309 309 309 309 309 309 308 308 308 309 309 309 309 309 310 310 310 311 311 311 312 312 312 312 312 311 312 312 312 312 313 313 313 314 314 314 314 313 313 313 313 313 313 313 315 316 317 319 320 321 322 322 322
302 302 303 304 306 306 305 305 306 308 310 309 309 308 307 306 306 306 306 307 307 308 307 307 307 307 308 309 309 309 308 308 309 309 309 308 309 309 309 308 309 308 308 308 308 309 309 309 309 310 310 311 311 311 311 311 310 310 310 310 311 311 312 312 313 313 313 313 313 313 313 312 312 312 312 312 312 313 314 315 317 319 320 321 322 322
300 301 301 302 304 306 306 306 306 308 309 308 307 307 307 306 305 305 304 305 307 308 307 307 307 307 307 308 309 309 308 307 307 307 308 307 307 307 307 307 307 307 307 308 308 308 308 308 309 309 310 310 310 310 310 310 309 309 309 310 310 310 311 312 312 313 313 313 313 313 312 312 312 312 312 312 312 312 313 314 315 317 318 320 321 321
298 299 300 300 302 303 305 306 306 305 305 304 304 304 304 305 305 304 303 304 305 306 307 307 307 307 307 307 307 308 306 305 305 306 307 307 307 306 306 306 306 306 306 307 307 307 307 307 307 308 308 309 309 309 309 309 309 309 309 309 310 310 310 311 312 312 312 312 312 312 312 312 312 312 312 312 312 312 312 312 313 315 316 318 320 321
297 298 299 299 300 301 302 303 304 303 302 303 302 301 302 303 304 305 304 304 304 306 307 306 306 306 306 307 307 306 305 304 304 304 305 306 307 307 306 306 306 306 306 306 306 307 307 307 307 307 307 308 308 308 308 308 308 308 309 309 310 310 310 310 311 312 312 312 312 312 312 312 311 311 311 311 311 311 311 312 312 313 314 316 318 320
296 297 297 297 298 299 300 301 301 301 301 302 302 302 302 303 304 304 304 304 304 305 306 306 305 305 306 306 306 306 305 303 303 303 303 304 305 306 306 306 306 306 307 307 307 307 307 307 307 307 307 307 307 307 307 307 308 308 309 309 309 310 310 310 310 311 311 311 311 311 311 311 311 311 311 311 310 310 310 311 311 312 313 315 316 318
294 295 295 295 296 297 298 299 299 300 301 302 302 303 303 303 303 304 303 303 304 305 305 304 304 304 305 305 306 305 304 303 303 302 302 303 305 305 305 305 305 306 306 306 306 307 308 307 308 308 308 308 307 308 307 308 308 308 308 309 309 310 310 310 310 310 311 311 311 311 310 310 310 310 310 310 310 310 310 310 310 311 311 313 314 316
293 293 293 294 295 296 297 298 299 299 300 301 302 302 302 302 303 303 303 303 303 303 303 302 301 302 303 305 306 305 304 303 302 302 301 302 304 305 305 304 304 304 305 305 305 306 307 308 308 308 308 308 307 307 307 308 308 308 308 309 309 309 310 310 310 310 310 310 310 310 310 310 310 310 310 310 310 309 309 309 309 310 311 311 312 314
292 292 292 293 293 295 296 297 298 299 300 301 301 302 302 302 303 303 303 303 302 302 301 300 299 299 300 303 304 304 304 303 302 302 301 302 303 304 305 303 302 303 304 304 304 305 306 307 307 308 309 308 307 307 307 307 308 308 308 309 309 309 309 309 309 309 309 309 310 309 309 309 309 309 309 309 309 309 309 309 309 310 310 311 311 312
291 291 292 292 292 293 295 296 297 298 299 300 300 301 302 303 303 303 303 303 302 301 300 300 299 299 299 300 302 303 303 303 302 301 301 301 302 304 305 303 302 302 302 303 304 304 305 306 306 307 308 308 307 307 307 307 308 308 308 308 309 309 309 309 309 309 309 309 309 309 309 309 309 309 308 308 308 308 308 308 309 309 309 310 310 310
291 291 291 291 292 293 294 295 295 297 298 298 299 300 300 301 302 302 302 302 302 301 300 299 299 299 299 300 301 302 302 302 302 301 300 301 302 303 303 302 301 301 301 302 303 304 305 306 306 306 306 306 307 307 307 307 307 308 308 308 308 308 308 308 308 309 309 309 309 309 309 308 308 308 308 307 307 307 308 308 308 308 308 308 308 308
291 291 291 292 292 292 293 294 295 296 297 298 298 299 299 300 300 301 301 301 301 301 301 300 299 299 299 301 302 301 300 301 301 300 300 300 301 302 301 300 299 299 299 300 302 303 304 305 305 305 305 305 306 307 307 307 308 308 308 308 308 308 308 308 308 308 308 309 309 308 308 308 307 307 307 306 306 306 307 307 307 307 307 307 307 306
290 291 292 292 292 292 292 293 295 297 298 299 300 300 300 300 300 301 301 301 301 301 301 300 299 300 301 301 303 302 299 300 300 299 300 300 301 302 301 300 299 298 299 300 302 303 304 304 305 305 305 305 306 307 307 308 308 308 308 308 308 308 308 308 308 308 308 308 308 308 307 307 306 306 306 305 305 305 305 305 305 305 305 305 305 305
290 291 292 293 293 293 292 294 295 297 298 299 298 297 297 298 299 300 300 301 301 300 300 300 300 302 302 303 303 303 300 301 300 300 299 299 300 301 301 300 299 299 299 300 301 303 304 304 304 305 305 306 306 306 307 308 308 308 308 308 308 308 308 308 308 308 308 308 307 307 306 306 306 305 305 305 305 305 305 304 304 304 304 304 304 303
291 291 292 293 293 293 294 294 295 296 297 297 297 296 297 298 298 298 299 299 300 300 300 302 303 304 304 304 303 301 301 301 301 301 299 298 299 300 300 299 299 298 299 300 302 303 304 303 304 304 305 305 306 307 307 307 308 308 308 308 308 308 308 307 307 307 307 307 306 306 306 305 305 305 304 304 304 304 303 303 303 303 303 302 302 302
292 292 292 293 293 294 294 294 295 295 296 296 296 297 298 298 299 299 299 299 299 299 300 301 301 302 302 302 300 298 299 300 301 301 299 298 299 300 299 298 297 298 299 301 302 303 303 302 303 304 304 305 305 306 306 307 307 308 308 308 308 307 307 307 306 306 306 306 306 306 305 305 304 304 303 303 303 303 302 302 302 302 302 301 301 301
292 292 292 293 294 294 294 294 295 295 295 295 295 296 297 298 298 299 299 299 299 298 298 298 297 298 298 299 298 297 297 299 300 299 298 298 298 299 299 298 297 298 299 301 302 302 302 301 302 303 303 304 305 305 306 306 307 307 307 307 307 307 306 306 306 306 306 306 306 305 305 304 304 303 303 303 302 302 302 301 301 301 301 300 300 300
293 293 293 293 294 294 295 295 295 295 296 296 296 296 296 297 297 297 297 297 297 297 296 295 295 295 297 298 298 298 298 299 299 299 299 298 298 298 299 298 298 299 299 301 300 300 300 300 301 302 302 303 304 305 305 306 306 307 307 307 307 306 306 306 306 306 306 305 305 305 304 304 304 303 303 302 302 302 301 301 301 300 300 300 299 299
294 294 294 294 294 294 295 295 295 296 296 297 296 296 296 296 295 294 294 294 295 295 294 293 293 294 296 297 297 298 299 299 299 299 299 298 297 297 298 298 298 298 299 299 299 298 298 299 300 301 301 303 303 304 304 305 306 306 306 306 306 306 306 306 306 305 305 305 304 304 304 304 303 303 302 302 302 301 301 300 300 300 299 299 299 299
294 294 294 294 294 295 295 295 295 296 296 297 297 297 297 296 294 293 293 294 295 295 294 293 293 293 294 295 297 298 300 299 299 299 299 298 297 296 298 298 298 297 298 298 297 296 296 297 299 300 301 302 303 303 303 304 304 305 306 306 306 306 305 305 305 305 305 304 304 304 304 303 303 303 302 302 301 301 300 300 300 299 299 298 298 298
294 294 294 294 294 295 295 295 296 296 297 297 298 298 297 296 295 294 294 296 296 295 294 294 294 294 294 295 296 298 299 300 299 299 298 297 296 296 299 297 297 297 297 296 295 295 295 296 298 299 300 301 302 302 302 303 303 305 305 306 306 305 305 305 305 305 304 304 304 303 303 303 303 302 302 301 301 300 300 300 299 299 298 298 298 298
293 294 294 294 295 295 295 296 296 297 297 298 298 298 298 297 296 296 296 297 296 295 294 294 294 295 295 295 295 296 297 299 300 300 298 296 295 296 298 297 296 296 297 295 294 294 294 296 297 299 299 300 300 300 301 301 302 303 305 305 305 305 304 304 304 304 304 304 303 303 303 303 302 302 302 301 300 300 300 300 299 299 298 298 298 297
292 293 293 294 295 295 296 296 296 296 297 297 297 297 297 297 297 297 297 296 295 294 294 294 294 294 295 294 294 293 294 297 300 300 299 296 295 296 298 296 296 296 297 296 294 293 294 296 297 298 298 298 299 299 299 299 300 301 303 305 305 305 304 304 303 303 303 303 303 303 303 302 302 302 301 301 300 300 300 299 299 298 298 297 297 297
290 290 291 292 293 294 295 295 295 295 295 295 295 295 295 296 296 296 296 296 295 294 293 293 293 294 294 294 293 293 295 298 300 301 299 297 296 296 298 297 296 296 297 296 295 294 294 296 297 296 297 297 297 298 298 298 298 299 302 303 304 304 304 303 303 303 303 303 303 303 302 302 302 301 301 300 300 300 299 299 299 298 298 297 296 296
289 289 290 290 291 292 292 292 293 293 294 294 294 294 294 295 295 295 295 295 295 294 293 293 292 292 293 293 294 294 296 299 301 301 300 298 296 296 297 297 296 295 295 296 296 296 296 297 295 294 294 295 296 297 297 297 296 296 299 301 302 303 303 303 303 302 302 302 302 302 302 301 301 301 300 300 299 299 299 299 298 298 297 296 296 295
288 288 289 289 289 290 290 291 291 291 292 292 293 293 293 294 294 294 294 295 295 294 294 293 292 292 292 292 293 294 296 299 301 301 300 299 297 296 296 296 296 295 295 295 295 295 296 296 295 293 292 293 295 296 296 296 295 295 296 300 301 301 302 302 302 302 302 301 301 301 301 301 300 300 300 299 299 299 299 299 298 298 297 296 295 295
288 288 288 289 289 289 290 290 290 291 291 291 292 292 292 293 293 293 293 294 294 294 294 294 293 293 292 291 291 292 294 297 300 301 300 299 297 297 296 296 296 296 294 294 294 294 294 294 294 294 293 293 293 294 295 295 294 294 293 297 299 300 301 301 300 300 300 299 299 299 299 299 299 299 299 299 299 298 299 298 298 298 297 296 296 295
288 288 288 289 289 290 290 291 291 291 291 291 292 292 292 292 293 293 293 293 294 294 294 295 295 294 294 293 293 293 293 296 299 300 300 299 298 297 296 297 297 297 295 294 294 293 293 293 293 294 294 294 293 294 294 293 292 292 291 294 297 300 300 300 299 299 298 298 298 298 298 298 298 298 298 298 298 298 298 298 298 297 297 296 296 295
288 288 289 289 289 290 290 290 291 291 291 291 291 292 292 292 292 293 293 293 294 294 294 295 295 296 296 296 295 295 295 297 299 300 300 300 299 298 297 297 297 298 297 296 295 294 293 293 292 292 293 293 294 294 293 292 291 291 291 292 295 298 299 299 299 298 298 297 297 297 297 297 298 298 298 298 298 298 298 298 297 297 296 296 295 295
288 288 289 289 289 289 289 289 290 290 290 291 291 291 292 292 292 292 292 293 293 294 294 294 295 296 297 297 297 297 298 299 299 299 300 299 299 298 298 298 298 299 298 298 297 295 294 293 292 291 291 293 294 295 294 292 291 290 291 292 294 296 297 298 298 298 297 297 296 296 297 297 297 297 297 297 297 297 296 296 296 296 295 295 295 295
286 287 288 288 289 288 288 288 289 289 290 290 291 291 291 292 292 292 292 292 292 293 293 293 294 294 294 294 296 298 299 297 294 292 294 295 297 298 298 298 298 298 299 299 298 296 295 294 293 292 292 292 294 295 295 293 292 291 292 292 293 294 296 297 297 297 297 296 296 296 296 296 296 296 295 295 295 295 294 294 295 295 294 294 293 294
284 285 285 287 288 288 288 289 289 290 290 291 291 291 291 291 291 291 291 292 292 292 293 293 294 294 294 295 296 297 297 296 295 294 293 292 293 296 297 297 298 298 298 298 298 297 296 295 294 294 294 294 294 294 294 293 292 292 292 291 291 292 294 296 296 296 296 296 295 295 295 295 295 295 295 295 294 294 294 294 294 293 293 292 292 292
283 284 285 286 287 288 289 289 290 290 290 290 290 290 290 290 289 289 290 290 291 291 292 293 293 294 294 295 296 296 297 296 296 296 294 291 291 294 296 297 297 298 298 298 297 296 296 295 295 295 295 295 295 295 295 294 293 292 292 291 291 292 294 295 296 296 295 295 295 295 294 294 294 294 294 295 295 295 295 294 294 293 293 293 292 291
284 284 285 286 287 288 288 289 290 290 290 290 289 289 289 289 289 289 289 289 289 289 290 291 292 292 292 293 294 295 297 298 297 295 293 291 291 293 295 296 296 297 297 297 296 296 296 296 295 295 295 295 295 294 294 294 293 293 293 292 292 293 293 294 295 295 295 294 294 294 294 294 294 294 294 294 295 295 295 295 294 293 293 292 292 292
285 285 286 287 287 288 289 289 289 289 289 288 288 288 289 289 289 289 288 288 289 289 290 291 291 291 291 291 292 293 295 297 298 298 296 294 292 292 294 295 296 296 296 295 295 295 296 296 295 295 296 295 295 294 294 293 293 293 292 293 292 291 290 291 292 293 294 294 294 294 294 293 293 294 294 294 295 295 295 295 294 294 293 292 292 292
285 285 286 287 287 288 288 288 288 288 288 288 288 288 289 289 290 290 289 290 290 290 291 291 291 291 290 290 291 292 293 295 296 297 297 296 295 293 294 295 296 296 296 295 295 294 294 295 295 295 296 296 295 294 293 293 292 292 292 293 293 292 291 291 291 292 293 293 293 293 293 293 293 294 294 294 294 294 294 294 293 293 293 293 292 292
286 286 287 288 288 287 287 287 287 287 288 288 288 289 290 290 291 290 290 290 290 290 291 291 290 290 289 290 290 291 291 292 293 295 294 295 294 294 294 294 295 296 296 296 295 295 294 294 294 295 296 295 295 294 293 292 292 292 292 292 293 293 293 293 292 292 292 292 293 293 293 293 293 293 293 292 292 293 293 293 293 292 293 292 292 292
286 286 286 286 286 286 286 286 287 287 288 288 288 289 289 290 290 290 289 289 289 289 289 289 289 288 288 288 289 289 289 290 291 292 293 293 293 293 293 294 295 295 296 296 296 296 296 295 295 294 294 294 294 293 293 293 292 291 291 292 292 292 293 292 292 292 292 292 292 292 293 293 293 292 291 291 291 292 292 292 292 292 292 292 292 292
284 284 285 285 285 285 285 285 286 286 286 286 286 287 288 288 288 288 288 288 288 288 288 288 288 288 288 288 288 288 288 288 289 290 292 292 292 292 292 293 294 295 296 296 296 296 297 296 296 295 294 293 292 292 293 293 292 291 291 292 292 292 291 291 291 292 292 292 292 292 292 292 291 291 290 290 290 291 291 292 292 292 292 292 292 292
284 284 284 284 284 284 284 284 284 284 284 285 285 286 287 287 287 287 287 288 288 288 288 288 288 288 288 288 288 288 288 288 289 289 291 292 292 292 291 292 292 293 294 295 295 296 296 296 296 296 295 293 292 292 292 292 292 292 291 292 291 291 291 290 291 292 292 292 292 292 292 291 290 290 290 289 289 289 290 290 291 292 292 292 292 291
284 284 284 284 284 283 283 284 284 284 283 284 284 285 286 287 287 287 287 288 288 288 288 288 288 288 288 288 288 289 289 289 290 290 291 292 292 292 291 291 291 292 292 292 292 292 293 294 295 295 295 294 293 292 292 292 292 292 292 292 292 291 290 290 290 291 292 292 291 291 291 291 291 290 290 289 288 288 289 289 290 291 291 291 291 291
284 284 284 283 283 283 283 283 283 283 283 284 284 285 286 286 287 287 287 287 287 288 288 288 288 287 287 287 288 289 289 290 290 290 291 291 292 291 290 290 290 290 290 290 290 290 290 290 290 290 291 293 293 293 293 292 292 291 291 291 291 291 290 290 290 290 291 291 290 290 291 291 291 291 290 289 288 287 288 288 288 289 290 290 291 291
284 284 283 283 283 283 283 283 283 283 283 284 284 285 285 286 286 286 287 287 287 288 288 288 288 288 287 288 288 288 289 290 290 290 290 291 291 291 290 289 289 288 288 287 287 287 287 287 287 288 289 290 291 292 294 292 291 290 290 290 291 291 290 289 289 290 290 290 290 290 290 290 290 290 290 289 287 287 286 286 287 287 288 289 290 290
Wind_Speed
4 4 3 3 4 5 6 8 8 8 8 7 5 4 4 4 4 5 5 5 6 6 6 6 6 6 6 7 7 8 9 10 10 10 10 10 9 8 8 7 6 6 5 5 5 5 6 6 6 7 7 7 8 9 9 10 11 12 13 13 14 14 14 14 14 14 14 15 15 15 15 14 13 12 10 10 10 10 9 9 10 10 10 11 11 12
4 4 4 5 6 6 7 9 9 9 9 9 7 5 4 4 4 4 4 5 6 6 6 5 5 6 7 6 7 9 9 10 10 10 10 10 9 9 8 7 7 6 6 6 6 6 6 6 6 7 7 8 8 9 9 10 11 11 12 13 13 14 14 15 15 15 15 15 15 15 15 14 12 11 10 10 10 11 11 11 10 10 11 11 12 13
6 5 5 5 6 7 7 9 10 9 9 9 8 5 4 4 4 4 4 5 5 6 6 5 5 6 7 6 7 9 10 10 10 10 10 10 9 9 8 8 8 7 7 7 7 7 7 7 7 8 8 8 9 9 10 10 10 11 11 11 12 13 13 14 14 14 14 14 15 14 14 13 11 10 10 11 11 12 12 12 11 11 11 11 12 13
7 6 6 5 6 7 8 9 9 8 7 6 6 5 4 5 5 4 4 4 5 5 6 6 5 5 6 6 7 8 10 10 10 10 10 10 9 9 9 9 9 8 8 8 8 8 8 8 8 8 9 9 10 10 10 11 11 11 11 11 11 11 12 12 13 13 13 13 13 13 13 12 11 11 11 12 12 12 12 12 12 11 11 12 13 14
8 7 7 6 6 7 7 8 8 7 4 4 4 4 5 5 5 4 3 4 5 5 5 5 5 5 5 5 6 8 10 10 10 10 10 10 10 10 10 10 10 9 10 10 10 10 10 10 10 10 10 10 10 11 11 11 11 11 11 11 11 11 11 12 12 12 12 12 12 12 12 12 12 12 12 12 13 13 13 12 12 12 12 13 14 14
8 8 7 6 6 6 6 6 6 5 4 3 4 5 5 5 5 4 4 4 5 5 4 4 5 5 5 5 6 8 9 10 10 10 10 10 10 10 11 11 11 11 11 11 11 11 11 11 11 11 11 11 11 12 12 12 12 12 12 12 12 12 12 12 12 12 12 12 12 12 12 13 12 12 12 12 13 13 13 13 13 12 12 13 14 15
8 8 7 7 6 6 5 6 5 4 4 5 5 5 5 5 5 5 6 5 5 5 4 4 4 5 6 6 6 7 9 10 10 11 11 11 12 12 12 12 12 12 12 12 13 13 13 13 13 13 13 13 13 13 13 13 13 13 12 12 12 12 12 12 12 12 12 12 12 12 13 13 13 12 12 12 13 13 14 13 13 13 13 14 15 16
9 8 7 7 6 6 6 6 5 5 6 6 7 6 6 5 5 6 6 6 6 6 5 5 5 5 6 7 7 7 8 9 9 10 11 12 12 13 13 14 14 14 14 14 14 14 14 14 14 14 14 14 14 14 14 14 13 13 13 13 13 12 13 13 12 12 12 12 12 13 13 13 13 12 12 12 12 12 13 13 14 14 14 15 16 16
10 9 8 8 8 8 7 7 6 6 6 6 6 7 7 7 6 5 6 6 6 6 5 6 6 6 7 7 7 7 7 8 8 8 8 9 10 11 12 13 14 15 15 15 15 16 16 16 15 15 15 15 15 15 15 14 14 14 14 13 13 13 13 13 13 12 12 13 13 14 14 13 13 12 12 11 11 11 12 13 14 15 16 16 16 17
10 10 9 8 8 8 7 7 7 6 5 5 5 6 7 7 7 6 6 6 6 6 5 6 6 7 7 7 7 7 7 7 8 8 8 8 8 8 9 10 11 12 14 15 16 16 16 16 17 17 16 16 16 16 15 15 14 14 14 14 14 13 13 13 13 13 13 14 14 15 15 14 13 12 11 11 11 11 11 12 14 15 16 17 17 17
9 10 9 8 7 6 6 7 5 2 2 3 3 4 5 6 7 7 7 8 7 6 5 5 6 6 6 6 6 6 5 6 6 7 8 7 7 7 8 8 9 10 12 13 14 15 16 17 17 17 17 16 16 15 15 15 15 14 14 14 14 14 14 13 14 14 14 15 15 16 15 14 13 13 12 11 10 10 10 11 13 15 17 18 18 19
8 8 8 7 7 6 5 4 2 1 2 2 3 5 6 6 6 7 8 9 8 7 6 5 5 5 6 6 5 4 4 4 4 5 5 6 6 7 7 7 8 9 10 12 13 14 15 16 17 17 17 16 16 15 15 15 15 15 15 15 15 15 14 14 14 15 15 16 16 16 16 15 14 13 12 11 10 10 9 10 11 14 16 18 19 20
8 7 7 7 7 7 6 5 3 2 3 4 6 7 8 7 7 7 8 8 9 8 6 5 4 5 5 5 5 4 4 4 4 4 4 5 5 6 6 6 7 7 8 8 9 11 13 15 16 16 16 16 16 16 15 15 15 15 15 16 16 15 15 15 15 15 16 16 16 16 16 15 14 13 12 11 10 9 8 8 9 11 14 17 19 20
7 7 7 7 7 7 7 7 6 5 6 7 8 8 8 7 7 7 7 8 8 8 7 6 6 5 5 5 5 5 4 4 4 4 5 5 6 6 6 6 6 6 6 6 7 8 9 11 12 13 15 16 16 16 16 16 15 15 16 16 16 16 16 15 16 16 16 17 17 16 16 15 15 14 13 12 11 10 9 8 8 8 9 12 15 17
7 7 8 8 8 7 7 7 7 8 7 7 7 8 8 8 8 8 8 8 7 7 6 7 7 7 5 5 5 6 5 5 5 5 6 6 6 6 6 6 6 5 5 6 6 7 8 8 8 9 11 14 16 16 16 16 16 16 16 16 17 16 16 16 16 16 17 17 17 17 16 16 15 14 14 13 12 11 10 9 9 8 8 9 10 13
7 8 8 8 8 7 7 7 7 8 8 7 7 7 8 8 8 8 7 7 7 6 6 7 7 7 6 5 5 5 6 6 6 6 6 6 6 5 6 5 6 6 6 6 6 6 6 7 8 9 10 13 15 16 16 17 17 17 17 17 17 17 16 16 17 17 17 17 17 17 17 17 16 15 15 14 13 12 12 11 10 9 9 9 9 10
7 8 8 8 8 8 7 7 8 8 8 7 7 7 8 8 7 7 7 6 5 5 5 5 5 6 5 4 4 5 6 5 5 5 6 6 5 5 5 5 5 6 6 6 6 6 6 7 7 8 9 11 13 15 16 17 17 18 18 17 17 17 17 17 17 17 18 18 18 18 18 17 17 16 15 15 14 13 13 12 11 10 10 10 10 10
8 8 8 8 8 8 7 7 7 7 8 8 7 7 7 7 7 7 7 5 5 5 5 5 5 5 5 4 3 4 6 5 5 5 5 5 5 4 4 5 5 5 6 6 6 6 6 7 7 8 8 10 12 13 15 17 17 18 18 18 18 17 17 17 17 18 18 18 18 18 18 18 17 17 16 15 15 14 14 13 12 11 11 10 10 10
8 8 8 8 8 8 7 7 7 7 7 8 7 7 8 8 7 7 6 6 6 6 6 6 5 6 6 6 3 3 5 5 5 5 5 5 4 4 4 4 5 5 6 6 6 6 6 6 8 9 9 10 11 12 14 16 17 18 18 18 18 18 18 18 18 18 18 18 18 18 18 18 17 17 17 16 15 15 14 14 13 12 12 11 11 11
9 9 9 8 8 8 8 8 8 8 8 8 7 7 7 7 7 7 7 7 7 8 7 7 7 8 8 8 5 4 5 5 5 5 5 5 4 4 5 4 5 5 6 6 6 6 6 7 7 8 10 10 11 12 13 15 17 18 18 19 19 19 19 19 19 19 18 18 18 18 18 18 18 17 17 16 16 15 15 15 14 13 13 12 12 12
10 10 9 8 8 8 8 7 8 8 9 7 7 6 6 6 6 6 7 7 8 8 8 7 8 9 8 9 6 5 7 6 6 5 4 4 4 4 4 5 5 6 6 6 6 6 6 7 7 7 9 11 11 12 13 15 16 18 18 19 19 19 19 19 19 19 19 19 19 18 18 18 18 18 17 17 16 16 16 15 15 14 14 13 13 12
10 11 10 10 10 9 8 8 9 10 10 9 7 6 6 5 5 5 4 5 6 7 7 8 8 9 8 9 5 4 8 7 6 5 3 4 5 4 4 4 5 6 6 6 6 6 6 6 7 7 9 11 12 12 13 15 16 17 18 19 19 19 19 20 20 20 20 19 19 19 19 19 19 18 18 17 17 17 16 16 15 15 14 14 13 13
11 11 11 11 11 10 9 9 10 10 10 10 9 8 6 6 6 6 5 5 5 5 5 6 7 7 8 6 3 4 6 6 6 5 4 6 6 5 4 4 4 5 6 6 5 5 6 6 6 7 8 10 11 12 13 14 16 17 18 18 19 19 19 20 20 20 20 20 20 20 20 19 19 19 18 18 17 17 17 16 16 15 15 14 14 13
12 12 11 11 10 10 9 9 9 9 8 9 9 9 8 8 8 8 7 7 6 6 5 5 6 6 6 4 2 2 4 5 5 4 4 6 6 4 3 4 4 5 6 5 5 5 5 5 5 6 7 9 10 11 13 14 15 17 18 18 18 19 19 20 20 20 20 20 20 20 20 20 20 19 19 18 18 17 17 16 16 15 15 14 13 13
11 11 11 10 10 11 11 11 11 10 10 9 9 8 8 9 10 10 9 8 8 7 6 6 7 6 5 3 3 3 3 4 4 4 4 4 5 4 3 4 4 5 5 4 3 3 4 4 5 5 6 7 9 10 12 14 15 16 17 18 19 19 20 20 20 20 20 20 20 20 20 20 20 20 19 19 18 18 17 17 16 15 15 14 13 12
14 14 14 15 16 17 18 18 18 17 16 13 11 9 9 9 9 9 9 9 8 8 8 9 8 7 5 3 3 3 3 4 5 5 4 4 4 4 3 4 4 5 5 3 2 2 3 4 4 5 5 6 7 9 11 13 14 16 17 18 19 19 20 20 21 21 21 20 20 21 21 21 20 20 20 19 19 18 18 17 16 15 14 13 12 12
21 21 22 23 23 24 24 24 24 24 24 21 18 15 12 9 9 9 10 9 9 8 9 9 9 8 6 4 4 4 3 4 5 5 5 4 4 4 3 3 4 4 5 3 2 2 3 4 4 4 5 5 5 7 9 11 13 15 16 18 19 19 20 21 21 21 21 21 21 21 21 21 21 21 20 20 19 19 18 17 17 16 14 12 11 10
23 23 24 24 25 25 26 27 27 27 27 27 26 24 18 12 10 10 10 9 8 8 9 9 9 8 7 5 4 3 3 4 5 5 5 4 4 4 3 3 3 4 4 2 1 1 2 3 4 4 4 4 4 5 7 9 11 13 15 17 18 19 20 20 21 21 21 21 21 21 21 21 21 21 21 20 20 19 19 18 17 16 13 11 8 6
19 21 22 23 24 25 26 26 26 26 26 27 26 24 17 12 10 9 8 6 6 8 9 8 8 8 8 7 5 4 4 4 5 5 5 4 4 3 2 3 3 4 3 2 1 1 3 4 4 5 4 4 4 4 5 6 7 9 12 16 18 19 20 20 21 21 21 21 21 22 22 22 22 21 21 21 20 20 19 19 17 15 11 9 7 6
13 15 16 18 19 20 20 19 19 19 21 21 20 17 12 9 8 8 5 4 5 7 8 7 7 7 7 7 6 5 5 5 5 6 6 5 4 3 3 3 4 4 3 2 2 2 3 4 4 5 4 4 4 4 4 4 4 5 7 12 16 18 20 20 21 21 21 22 22 22 22 22 22 22 22 21 21 21 20 19 16 13 8 7 7 6
9 10 11 12 12 12 11 11 11 12 13 13 13 11 8 7 7 7 6 5 5 6 7 7 6 6 6 6 6 5 5 4 5 7 7 5 4 4 4 4 4 4 4 3 3 3 3 3 4 4 4 4 4 4 4 4 3 3 4 6 9 13 18 20 20 20 21 22 22 23 23 22 22 22 22 22 21 21 21 20 16 12 8 7 7 7
10 10 10 9 9 8 8 8 8 8 8 9 8 8 7 7 7 7 6 6 6 6 6 6 6 6 6 6 6 5 4 2 4 7 8 5 4 4 4 5 4 4 4 4 4 3 3 2 2 3 3 3 4 4 4 4 3 3 3 4 5 9 15 17 18 18 19 21 22 23 23 23 22 22 22 22 22 22 21 20 17 12 8 8 7 7
10 10 9 9 9 8 8 8 8 8 8 8 8 8 7 7 7 7 7 7 6 7 7 7 7 7 6 7 6 5 4 2 3 5 7 5 4 3 4 5 4 4 4 4 4 4 3 2 1 1 2 2 3 3 4 4 3 3 3 4 4 6 11 13 14 14 14 16 18 20 22 22 22 22 22 22 22 22 21 20 18 14 10 8 7 7
11 10 10 10 9 9 9 9 9 9 9 8 8 8 8 8 8 8 7 7 7 7 7 7 8 8 7 7 6 5 4 3 3 4 6 5 4 3 4 5 5 4 4 4 4 3 3 2 1 1 1 1 2 3 3 4 3 3 3 3 4 5 7 9 9 9 10 10 11 13 15 16 19 20 21 21 21 21 21 20 18 15 12 9 8 7
10 10 10 10 9 9 9 9 9 9 8 8 8 8 8 8 8 8 7 7 7 7 7 7 8 8 8 8 7 7 6 4 3 4 6 5 4 3 3 4 5 4 4 4 4 3 2 2 2 2 1 1 2 2 3 2 2 2 2 2 3 4 6 7 7 7 8 8 8 8 9 10 12 14 15 17 19 20 20 20 18 16 14 12 10 8
9 10 9 9 8 8 8 8 8 8 7 7 7 7 7 8 8 8 7 7 7 7 7 8 8 8 8 8 8 8 9 6 4 4 6 6 5 4 3 4 4 4 4 5 4 4 3 3 3 4 4 3 2 2 2 1 1 1 2 2 2 3 5 6 7 7 7 7 7 7 7 8 8 9 11 15 18 19 20 20 19 17 15 13 11 10
9 9 9 8 8 7 7 7 7 6 6 6 6 6 7 7 7 7 7 6 6 7 7 8 8 9 9 9 9 9 9 8 6 6 7 6 6 5 4 4 4 5 5 5 5 4 4 4 4 4 4 4 3 2 2 2 2 2 2 2 2 3 5 6 7 8 8 8 8 7 8 8 8 8 10 14 17 18 19 19 18 17 15 14 12 11
8 8 8 8 7 7 7 6 6 6 6 6 6 6 7 7 8 8 7 6 7 7 7 7 8 9 11 11 10 10 10 11 10 9 8 7 7 6 6 5 5 6 7 6 6 5 5 5 4 4 4 5 4 4 3 3 3 4 3 3 2 3 4 6 7 8 8 8 8 8 8 8 8 8 9 11 12 12 12 13 14 14 14 13 12 11
7 7 8 8 7 7 7 6 6 6 6 6 6 6 6 7 8 8 7 7 7 8 9 8 8 9 9 10 11 11 11 10 9 8 8 8 8 8 7 7 7 7 7 7 6 6 6 6 5 5 4 5 5 4 4 4 4 5 4 3 2 2 3 5 7 8 8 8 9 9 8 7 7 8 8 9 9 9 9 9 10 11 11 9 9 10
8 8 8 8 8 7 7 7 7 7 7 7 7 7 6 7 7 7 7 8 8 8 9 10 9 9 9 9 10 10 10 8 8 8 7 7 7 7 7 7 7 7 7 7 7 7 7 7 6 6 6 5 5 4 4 5 5 5 6 4 3 3 4 5 6 7 7 8 9 9 8 8 8 8 8 9 9 9 9 9 9 9 9 8 7 8
8 8 8 8 8 8 8 7 7 7 7 7 7 6 6 6 7 7 7 7 8 8 7 8 8 8 9 9 10 10 10 9 9 8 7 7 8 8 8 7 6 6 6 7 6 7 7 8 8 8 7 7 6 6 5 6 7 8 8 7 5 5 5 5 6 7 7 8 8 9 9 9 9 9 9 9 9 9 9 9 9 9 9 8 8 8
8 8 7 7 7 7 6 6 7 7 7 7 7 7 7 7 7 7 7 7 7 7 6 7 7 7 8 8 9 10 10 9 8 8 8 8 8 9 9 8 6 6 6 7 7 8 8 8 8 8 8 7 6 6 5 6 7 8 9 8 6 5 4 5 5 5 7 8 8 8 10 9 9 9 9 9 8 8 8 9 10 10 10 8 8 7
7 7 7 7 6 6 7 7 7 7 7 6 7 7 7 7 7 7 7 7 7 7 6 6 6 6 7 7 8 8 8 8 8 8 8 7 7 8 8 8 8 7 7 7 7 8 8 8 8 8 8 7 7 7 7 7 7 7 8 8 7 6 4 4 5 5 7 8 8 8 8 8 8 8 8 8 8 7 8 9 10 11 11 9 8 7
7 7 6 6 6 6 6 6 6 6 6 6 7 7 7 7 7 7 7 6 6 5 4 4 5 6 7 7 7 7 7 7 7 7 7 7 7 7 8 9 9 9 9 8 7 6 6 7 8 8 7 6 6 7 7 7 7 7 7 8 8 8 7 6 6 7 7 7 7 8 8 8 8 7 7 7 7 7 8 8 8 9 9 8 8 7
6 6 5 5 5 5 5 5 5 6 6 6 7 7 6 6 6 6 6 5 5 6 5 5 5 5 6 6 6 6 6 7 6 5 5 6 7 8 8 9 9 9 9 9 8 7 6 6 6 6 6 6 6 7 7 7 8 8 8 8 8 8 7 6 7 8 8 8 8 8 8 8 8 8 7 7 7 7 7 8 9 9 8 8 8 8
5 5 5 5 5 5 6 6 6 6 6 6 6 6 6 6 5 5 6 6 6 6 6 5 5 5 6 6 6 6 6 7 6 5 4 5 6 7 8 8 8 8 8 8 8 8 7 6 6 6 6 6 7 7 7 7 8 8 8 9 8 7 5 6 7 8 9 8 8 9 9 9 9 8 8 8 7 7 7 8 9 9 9 8 8 8
5 6 6 5 6 6 6 6 6 6 7 7 7 7 7 7 6 7 7 7 7 7 6 6 6 7 7 7 6 6 7 7 7 6 5 5 5 6 6 6 7 7 7 7 8 8 8 8 7 7 7 7 7 7 7 7 7 8 8 8 8 7 6 6 7 8 9 8 8 9 11 10 9 8 8 8 7 7 6 7 7 8 8 8 8 8
5 6 6 6 6 6 6 6 6 6 7 7 7 7 7 7 7 8 7 7 7 7 6 6 7 7 8 7 7 7 7 8 7 7 6 5 5 5 5 5 5 6 6 6 6 6 6 7 7 8 8 8 7 7 7 7 7 7 8 8 8 8 7 7 7 8 8 8 9 10 11 10 10 9 9 8 7 7 6 6 6 7 7 7 7 8
5 5 5 5 6 6 6 6 6 7 7 7 7 7 7 8 8 8 7 7 7 7 7 7 7 7 7 7 7 7 7 7 7 6 6 4 4 4 4 4 4 4 4 4 3 3 3 3 3 3 4 6 6 7 7 7 7 7 7 7 8 7 7 6 7 7 7 8 9 10 11 10 9 9 9 9 9 8 8 7 7 6 6 7 7 7
5 5 5 6 6 6 6 6 7 7 7 8 8 7 7 7 7 7 7 7 7 7 7 7 8 8 7 7 7 7 6 6 6 6 6 4 3 3 3 4 4 4 4 3 2 1 1 1 1 2 3 2 2 4 7 7 7 6 6 6 6 6 6 6 6 7 7 7 8 9 10 9 8 8 8 9 9 9 8 7 7 6 6 6 7 7
6 6 6 6 6 6 6 7 7 7 8 8 8 7 7 7 7 7 7 7 7 7 7 7 8 8 8 7 7 6 6 6 6 6 6 4 3 3 4 4 4 4 4 4 3 3 2 2 1 1 1 2 3 1 4 6 7 7 6 6 6 5 5 6 6 7 7 7 7 8 9 9 8 8 8 8 8 8 8 8 7 7 6 6 7 7
Wind_Direction
272 271 270 265 265 265 263 257 257 260 262 257 246 226 203 213 231 245 249 251 250 247 243 240 236 230 222 213 208 205 202 200 198 198 198 198 199 201 202 205 207 211 214 217 220 222 224 225 225 225 226 226 226 226 226 225 224 224 223 223 222 222 221 222 222 223 223 221 216 210 205 202 199 196 193 193 194 197 201 208 215 221 224 222 216 210
250 248 246 241 246 254 261 255 252 252 257 257 252 239 211 213 221 230 231 237 241 243 242 237 234 230 226 218 213 209 207 205 203 201 200 201 202 203 205 208 212 216 221 226 230 233 234 235 233 231 229 228 227 226 226 225 225 225 225 224 224 223 223 222 222 222 222 221 216 212 207 203 199 195 193 193 194 197 201 207 212 217 220 218 214 209
244 238 234 230 233 241 255 256 253 250 250 257 259 254 233 231 230 228 222 224 228 231 234 230 228 227 226 221 215 211 210 208 206 205 204 204 205 207 209 212 216 220 224 228 232 235 238 239 238 236 233 231 228 227 225 224 224 224 224 224 224 224 224 223 223 222 221 219 216 211 207 202 198 195 195 196 197 199 202 205 209 213 215 214 212 208
261 258 251 240 233 236 248 257 258 255 249 257 264 266 257 253 248 241 229 228 227 226 226 222 221 222 224 221 216 212 211 211 210 209 208 209 210 212 214 217 219 222 226 229 232 235 237 239 239 239 237 234 231 228 226 224 223 223 223 223 224 225 226 225 224 222 219 216 212 208 204 200 198 197 199 201 202 203 204 206 208 210 210 210 209 207
268 268 268 262 254 248 246 254 257 257 248 251 258 261 257 256 255 252 242 239 237 232 225 220 218 219 220 220 215 211 211 213 214 215 215 215 217 218 219 221 223 226 228 231 233 235 236 238 239 239 238 236 234 230 227 225 223 222 221 222 223 224 227 227 226 223 219 213 208 204 200 198 198 199 202 204 205 206 206 207 207 208 209 208 207 205
268 268 270 268 265 262 258 256 256 254 244 243 247 250 250 250 252 250 242 239 237 235 229 223 221 221 221 221 215 211 211 214 217 220 221 222 223 224 225 225 227 228 230 232 234 235 236 236 237 237 237 236 235 232 229 226 223 222 221 221 222 223 226 227 227 224 218 210 204 199 196 196 197 200 203 206 208 209 209 209 209 209 208 207 206 203
266 265 267 267 268 268 268 264 259 252 247 249 248 246 242 242 242 242 240 236 233 229 225 223 224 225 225 222 216 212 211 214 218 222 225 227 228 228 228 228 229 230 231 233 234 235 235 235 235 235 235 235 234 232 230 226 224 222 221 221 221 223 225 226 226 223 216 208 201 196 193 194 196 198 202 206 209 211 212 211 211 210 209 207 205 201
264 263 261 263 264 265 263 259 253 246 245 253 255 252 243 233 228 228 232 234 233 229 223 222 223 224 225 221 216 213 212 214 216 218 222 224 225 226 227 228 229 230 231 232 233 234 235 235 235 234 233 233 232 231 230 227 224 222 221 220 221 222 224 225 224 221 215 206 198 193 191 192 194 196 200 204 208 211 212 213 213 212 210 208 204 200
265 263 258 254 255 256 256 251 240 230 228 240 251 258 259 252 241 229 223 227 228 228 225 225 226 226 225 220 217 214 215 218 220 221 222 221 221 221 223 224 226 228 229 230 231 233 234 234 234 234 233 232 231 230 229 227 224 222 220 220 220 221 222 223 223 219 213 204 197 192 189 190 191 194 197 201 205 208 212 214 214 214 212 208 204 199
266 265 263 256 251 249 253 253 246 232 213 226 243 257 266 268 267 261 249 238 228 221 220 227 232 233 231 224 218 214 215 220 225 230 233 233 233 232 228 227 228 228 229 230 230 231 232 233 234 234 234 233 231 230 229 227 224 222 220 219 219 219 220 221 221 218 212 203 196 190 187 187 188 190 193 197 201 205 209 212 215 216 214 209 204 199
267 266 267 263 257 252 252 257 260 248 186 217 239 251 257 263 268 270 267 258 244 228 215 222 230 235 238 234 225 216 211 217 223 227 233 235 238 239 237 237 236 235 234 232 232 232 232 233 234 234 234 234 232 231 229 227 225 222 220 219 218 218 218 219 219 216 211 202 194 189 186 185 185 186 188 191 195 200 204 209 213 215 215 210 205 199
266 265 265 265 263 260 254 253 250 145 158 215 239 247 248 247 250 255 259 260 255 245 226 218 220 228 236 239 234 222 209 216 222 225 227 227 227 228 231 233 234 235 234 233 232 232 232 233 233 234 235 234 234 232 231 228 226 223 220 219 217 217 216 217 216 214 209 200 193 187 184 183 182 183 183 184 186 190 195 201 207 212 213 210 205 200
264 265 264 264 264 263 259 248 226 194 205 228 241 248 252 247 243 243 247 251 254 253 245 227 217 219 226 233 233 227 215 219 224 228 230 227 224 222 224 226 226 226 226 228 228 227 228 229 231 232 233 234 233 233 232 230 227 224 221 218 217 216 215 215 214 212 206 198 191 186 182 181 180 179 178 177 176 176 178 184 193 201 207 207 205 201
270 270 268 265 262 261 261 256 247 237 232 235 241 246 251 251 246 242 242 245 248 251 254 250 244 235 224 220 220 220 217 222 226 231 233 231 228 226 225 228 227 224 221 224 226 224 220 220 224 227 228 230 231 232 231 230 228 225 222 219 216 215 213 213 211 208 204 196 189 184 180 179 178 177 175 171 168 165 162 162 167 177 187 194 198 198
271 270 268 266 264 263 262 262 259 255 251 247 246 247 248 247 245 242 240 242 244 246 250 254 255 253 243 222 210 206 208 217 224 230 234 232 228 224 224 228 230 229 225 227 230 228 219 218 221 223 222 223 225 226 225 226 225 223 221 218 216 213 212 210 208 205 200 194 188 183 179 178 177 176 173 170 166 161 157 153 152 152 155 166 176 182
272 271 269 268 266 265 263 263 263 263 262 259 255 251 247 246 243 240 239 242 244 245 248 253 257 258 252 227 199 190 195 211 221 229 235 234 227 218 215 222 228 230 228 229 232 232 226 224 226 227 226 222 221 220 218 221 222 221 219 217 214 212 209 207 205 201 197 192 187 182 179 177 176 175 173 170 166 162 158 155 152 150 147 146 150 156
273 272 272 272 270 268 268 267 267 267 267 265 262 258 254 253 250 247 244 243 243 244 245 249 253 256 259 234 196 180 185 202 216 227 234 236 226 210 199 211 223 230 230 231 232 232 230 229 229 230 231 225 220 217 215 217 218 218 217 215 213 210 207 204 201 198 194 190 186 182 178 177 175 174 172 170 167 164 161 159 157 155 152 149 147 147
264 266 269 270 270 270 270 269 269 270 272 270 269 267 264 261 258 256 253 249 245 242 242 242 244 249 262 251 211 173 180 196 210 223 231 235 224 200 186 201 218 229 235 235 234 234 233 234 232 232 233 226 220 216 214 215 216 216 215 213 211 208 204 201 198 195 192 188 185 181 177 175 174 172 170 168 166 164 161 160 159 158 156 153 150 148
257 258 261 263 266 268 270 270 270 271 271 269 268 267 265 263 261 258 255 251 247 245 245 246 246 248 256 255 231 169 179 192 204 217 228 234 219 187 165 193 213 226 236 238 237 236 236 238 238 237 236 232 226 220 215 214 215 215 213 211 209 206 202 198 195 192 190 187 183 179 176 173 171 169 167 165 164 162 160 160 159 158 156 154 151 149
259 257 257 261 266 269 267 265 264 266 268 275 281 285 284 280 273 265 255 249 245 244 244 244 245 247 250 253 237 187 170 188 200 212 225 235 223 191 161 187 205 219 232 236 236 234 234 236 237 237 235 233 229 223 218 215 214 213 212 210 208 204 200 196 193 190 187 184 180 176 173 170 168 166 164 162 161 160 159 159 158 157 156 154 152 151
259 257 254 257 261 264 263 263 266 271 277 289 297 300 297 294 285 274 266 257 248 242 235 235 239 242 239 249 238 189 163 181 194 206 223 235 231 207 170 185 201 216 229 233 230 228 229 232 233 233 232 231 228 224 219 215 214 213 211 209 206 203 199 195 191 188 185 181 177 173 170 168 165 163 162 161 160 159 159 158 158 157 156 155 154 153
260 260 259 258 259 260 263 267 270 273 277 283 283 281 282 286 284 281 279 273 263 254 246 242 242 242 239 242 229 166 162 179 191 201 219 240 237 218 168 186 202 216 230 231 226 221 221 225 228 230 230 230 227 223 219 215 213 212 210 208 205 201 197 193 189 186 182 178 175 171 168 166 164 162 161 160 160 159 159 159 159 158 158 157 156 157
260 262 265 263 262 263 266 267 268 269 271 271 270 270 273 279 283 286 294 295 293 288 283 276 269 262 254 248 216 153 167 183 192 200 212 243 242 224 161 185 203 217 231 231 224 217 215 221 225 229 230 230 227 222 218 215 212 210 208 205 202 198 194 190 186 183 180 176 173 170 168 166 164 162 161 161 160 160 159 159 159 159 159 159 159 159
256 259 262 261 262 263 266 266 266 266 267 267 268 269 270 272 274 277 282 286 290 294 299 297 288 276 264 252 224 169 182 192 195 200 213 240 246 237 157 176 200 220 231 229 221 212 211 219 224 227 228 230 228 223 218 214 211 208 205 201 197 193 189 186 183 180 177 174 172 169 167 166 164 163 162 161 161 160 160 160 160 160 160 160 161 162
252 254 256 257 258 258 260 261 262 264 265 265 266 267 268 269 270 271 273 274 276 280 285 285 279 271 261 241 221 204 198 203 202 203 213 233 240 231 157 174 199 220 230 222 208 200 212 222 226 227 227 229 228 225 219 213 209 206 202 197 193 189 185 182 180 177 175 173 171 169 168 167 166 165 163 163 162 161 160 160 160 161 161 161 162 164
252 253 256 258 260 260 260 261 261 261 261 262 263 264 266 269 271 272 271 268 268 269 273 273 272 269 265 251 232 216 193 202 208 212 213 229 235 226 178 182 203 223 233 215 188 184 218 229 231 229 228 228 227 224 220 213 208 203 199 194 189 185 182 180 178 176 174 172 171 170 169 169 167 166 165 163 163 162 161 161 160 160 160 160 162 166
253 255 257 259 261 262 263 262 261 260 259 259 259 261 264 268 269 268 264 261 260 260 260 261 264 266 267 258 245 226 189 193 205 214 214 225 234 230 193 184 203 224 235 221 194 192 226 238 238 235 231 227 226 225 222 216 210 203 197 192 187 184 181 179 177 175 174 173 172 171 171 170 169 167 166 164 163 163 162 161 160 159 159 158 161 166
252 254 256 258 260 261 262 262 261 260 259 258 258 258 260 259 257 255 254 256 257 255 252 251 254 258 259 254 249 236 202 196 200 205 207 215 230 231 199 180 197 218 230 228 217 217 238 246 247 243 238 230 225 224 225 221 214 206 198 192 188 184 181 179 178 176 175 174 173 172 172 171 170 168 166 165 164 163 162 161 159 158 157 158 160 165
253 253 254 256 257 259 261 261 261 260 258 258 257 257 256 252 248 247 249 256 260 259 255 250 248 248 250 251 252 247 227 210 197 190 191 205 225 230 193 178 191 207 213 219 233 239 237 239 240 240 239 232 227 224 225 225 220 213 204 195 190 186 183 181 179 178 176 175 174 174 173 172 170 169 167 165 164 163 162 160 159 158 158 161 163 166
257 256 255 254 254 256 258 259 259 258 257 257 257 258 257 254 251 250 251 258 264 267 267 263 256 251 249 250 250 247 238 215 189 176 179 200 217 219 187 186 194 199 194 200 224 239 234 223 219 220 223 225 226 224 222 221 224 221 212 198 193 189 185 183 181 179 178 176 175 175 174 172 170 168 167 165 164 163 162 161 160 159 161 164 167 169
273 268 264 260 258 257 258 259 260 260 258 258 258 259 259 259 261 261 260 257 262 269 277 278 274 267 259 254 249 245 242 211 180 171 178 198 213 214 193 197 198 196 191 199 217 234 237 214 198 194 200 211 220 224 219 216 218 220 217 202 196 191 187 184 181 180 179 178 176 175 174 172 170 168 166 165 164 163 163 162 162 162 163 166 169 171
280 277 275 274 273 272 270 269 269 268 267 265 263 261 259 261 264 267 266 262 261 266 274 280 282 280 273 266 260 256 257 232 184 176 182 196 209 211 201 205 202 195 193 204 218 234 248 221 176 163 182 200 214 220 217 213 214 217 220 206 199 192 187 184 182 180 179 178 176 175 173 171 169 168 166 165 165 165 164 165 165 165 166 168 169 171
274 273 272 273 273 273 271 269 268 267 266 266 265 263 261 260 261 263 265 265 264 264 267 271 275 277 277 273 270 268 271 269 213 194 195 201 204 203 201 207 204 195 189 204 218 235 255 252 159 127 171 199 214 219 217 212 211 216 222 209 199 189 184 182 181 180 178 177 175 174 172 170 168 167 166 166 166 166 167 168 169 169 168 167 168 168
267 265 264 264 263 261 260 259 258 258 257 257 257 257 257 257 256 256 257 260 261 263 265 266 268 270 272 273 272 272 271 272 244 223 218 219 213 202 196 205 203 194 184 197 208 221 249 256 226 141 165 194 213 221 220 213 211 215 229 219 198 183 178 177 176 174 172 171 170 170 171 168 167 167 166 167 167 169 170 171 172 172 171 169 166 164
260 260 260 259 259 258 257 256 255 254 254 253 252 252 252 253 252 251 250 251 253 255 257 260 262 264 265 268 269 269 267 271 253 233 233 235 234 227 209 208 202 193 186 194 196 200 221 231 228 218 204 191 204 216 215 211 210 219 245 246 210 182 171 168 166 163 161 162 162 162 164 164 165 167 167 168 170 171 173 174 174 174 174 171 168 166
259 258 258 259 261 262 261 259 258 257 256 257 257 257 256 256 254 252 249 248 249 250 251 253 256 257 259 259 262 264 266 268 252 228 227 236 241 243 237 220 205 195 195 197 197 197 205 214 223 228 231 225 216 205 190 180 193 232 256 259 226 187 169 162 159 157 155 156 157 158 158 160 162 165 167 169 171 172 174 175 176 175 174 173 171 169
260 257 255 254 255 257 260 261 261 260 259 258 257 256 255 255 254 254 252 251 250 251 253 255 257 258 258 258 258 261 264 264 254 235 224 231 236 240 243 233 215 204 204 203 200 198 204 208 212 218 231 232 226 206 171 160 176 213 231 240 224 191 168 161 158 157 157 157 157 157 156 157 159 161 162 167 170 172 174 175 176 176 174 173 172 171
273 268 262 258 257 257 261 265 266 264 262 259 255 253 252 253 255 258 260 259 259 259 259 258 259 259 259 260 260 260 263 263 259 248 232 231 230 232 237 237 227 217 216 212 205 200 204 209 209 211 223 229 226 212 176 167 180 198 207 217 217 196 172 164 162 161 161 158 156 155 154 154 154 155 157 162 165 168 172 174 175 175 174 173 173 173
291 290 287 282 277 271 268 266 265 265 263 261 259 258 259 260 263 265 267 266 264 261 259 258 258 257 256 257 258 259 260 260 256 249 237 235 233 233 233 234 231 227 224 221 214 209 210 215 215 213 215 223 223 214 189 180 183 188 187 192 210 212 189 170 166 165 164 160 158 156 155 153 152 152 154 158 161 163 167 169 171 172 172 171 172 174
287 289 290 287 282 276 270 267 266 266 266 266 265 265 264 265 266 267 266 264 261 258 256 256 256 256 255 255 256 256 257 256 253 248 242 237 237 238 236 234 233 232 229 226 222 218 216 221 223 222 218 219 218 210 191 186 184 181 173 176 191 203 195 177 171 168 165 163 162 161 159 156 155 156 158 160 163 166 168 168 168 169 169 168 169 171
274 275 276 276 275 273 272 272 273 275 276 275 273 269 265 264 264 264 263 261 259 257 255 254 254 254 254 254 254 254 253 253 251 248 244 235 235 239 244 242 240 236 232 227 222 218 216 220 223 224 221 220 216 207 194 189 184 180 180 185 187 186 181 178 173 168 165 166 165 164 161 159 159 161 163 165 167 168 168 166 165 166 168 170 171 171
266 267 268 270 272 275 278 283 285 285 283 280 276 273 269 267 265 264 263 261 259 256 254 253 253 253 252 250 249 248 246 243 240 238 237 229 227 231 239 243 245 244 239 232 226 219 214 215 218 220 219 216 213 207 200 189 184 184 189 190 181 169 165 182 179 170 166 168 167 165 163 162 162 164 165 165 165 165 165 165 165 167 168 171 174 175
262 262 265 269 274 280 286 288 288 287 285 282 279 276 273 269 264 261 260 260 259 260 260 259 257 256 255 252 249 244 240 236 235 233 230 220 215 217 226 234 239 242 242 238 231 224 216 214 216 217 216 210 208 204 198 186 182 185 194 188 178 168 173 187 183 174 171 170 168 166 166 165 163 162 162 161 160 159 161 163 166 168 169 170 172 176
261 260 261 262 265 269 275 277 279 280 280 280 279 277 275 272 270 267 265 262 259 258 257 260 262 261 260 258 256 253 251 244 236 229 226 223 218 217 223 230 235 237 237 237 232 225 217 215 215 215 210 207 205 203 194 184 182 185 191 187 185 184 185 176 171 171 175 171 169 167 167 163 159 156 155 155 156 158 161 163 166 168 170 170 171 174
266 266 266 265 265 266 268 269 271 272 272 272 272 274 275 276 274 272 270 269 268 268 267 267 267 266 262 261 261 263 264 258 247 231 222 222 221 222 225 230 234 236 236 235 232 225 218 215 212 209 202 203 203 201 192 184 182 183 187 189 192 194 192 172 168 172 176 171 168 167 165 159 155 153 153 155 158 161 164 165 167 167 168 169 172 174
291 291 288 286 284 282 280 279 278 278 277 275 274 273 273 273 272 271 271 272 274 275 275 274 270 267 265 265 264 264 264 261 253 239 220 216 217 220 225 229 233 236 238 238 236 231 224 218 210 202 196 200 202 200 192 183 180 180 183 187 190 190 182 172 173 177 177 172 169 165 162 157 156 156 159 160 161 163 166 167 168 168 167 168 170 173
292 292 291 290 288 287 286 286 285 284 282 280 279 277 277 276 275 273 272 271 270 268 267 264 261 259 258 258 258 258 257 258 254 247 227 212 208 211 219 226 232 237 243 245 244 239 234 226 216 205 198 197 197 196 191 184 180 179 180 182 184 185 181 178 178 179 177 173 168 163 160 159 160 162 162 160 160 162 166 168 168 168 166 167 168 170
285 287 288 290 291 291 291 290 288 286 283 280 279 278 277 275 273 271 270 267 264 261 258 254 252 252 254 254 254 253 252 253 254 252 241 220 205 201 206 217 228 237 245 254 259 257 250 238 225 214 205 199 195 191 188 184 181 179 178 179 182 184 183 179 177 177 178 173 167 162 161 163 165 165 161 159 160 164 167 168 168 167 166 166 166 167
287 288 290 291 290 289 288 287 285 282 279 277 276 274 271 270 268 267 267 264 261 257 252 250 249 250 251 252 251 250 247 247 249 251 248 233 210 193 192 205 219 231 241 253 268 280 281 266 258 247 228 211 200 191 185 182 179 176 175 178 181 183 181 176 174 175 177 171 166 165 167 169 168 164 160 161 163 166 167 168 168 167 165 166 166 166
290 290 290 289 288 287 286 284 282 279 276 274 272 271 271 270 268 265 263 260 257 253 250 248 248 248 249 250 250 251 250 249 249 250 251 241 219 194 186 196 208 220 230 232 236 247 261 279 334 347 334 288 228 197 185 176 171 170 171 177 180 179 175 171 170 172 173 167 165 166 170 170 167 163 161 162 163 164 165 166 167 167 165 165 165 164
293 292 290 289 287 285 284 283 280 276 274 272 271 272 273 272 270 266 261 258 255 253 251 250 249 248 247 248 250 253 256 258 258 258 257 249 228 201 189 193 201 210 218 218 214 210 210 210 215 253 320 344 337 292 192 170 164 164 170 175 176 173 170 166 166 167 169 166 165 166 168 168 167 166 165 164 163 163 164 166 167 166 164 163 162 161